This demonstration page uses our WeatherBlox Daily Observations layout. Learn more.

38.89511, -77.03637

Hourly Observations for June 4, 2018

Temp ( °F °C ) Dew Point ( °F °C ) Humidity (%) Winds ( mph kmh ) Pressure ( in mb ) Visibility ( mi km ) Precip ( " mm )
12:52 am 00:52 Cloudy 58 14.4 53 11.7 84 84 N 12 19 29.85 1011 10 16.09344 0 0
1:52 am 01:52 Cloudy 58 14.4 54 12.2 87 87 N 13 20 29.85 1011 10 16.09344 0 0
2:52 am 02:52 Cloudy 57 13.9 53 11.7 87 87 NNE 10 17 29.83 1010 10 16.09344 0 0
3:52 am 03:52 Cloudy 58 14.4 53 11.7 84 84 NNW 8 13 29.83 1010 10 16.09344 0 0
4:52 am 04:52 Cloudy 57 13.9 53 11.7 87 87 N 6 9 29.83 1010 10 16.09344 0 0
5:05 am 05:05 Mostly Cloudy 57 13.9 53 11.7 87 87 N 5 7 29.85 1011 10 16.09344 0 0
5:21 am 05:21 Partly Cloudy 57 13.9 52 11.1 83 83 NNW 5 7 29.85 1011 10 16.09344 0 0
5:44 am 05:44 Mostly Cloudy 57 13.9 52 11.1 83 83 NNW 8 13 29.85 1011 10 16.09344 0 0
5:52 am 05:52 Mostly Cloudy 57 13.9 53 11.7 87 87 NNW 7 11 29.85 1011 10 16.09344 0 0
6:39 am 06:39 Mostly Cloudy 58 14.4 53 11.7 84 84 N 6 9 29.85 1011 10 16.09344 0 0
6:52 am 06:52 Cloudy 59 15 54 12.2 83 83 N 3 6 29.83 1010 10 16.09344 0 0
7:52 am 07:52 Cloudy 60 15.6 54 12.2 80 80 N 9 15 29.83 1010 10 16.09344 0 0
8:52 am 08:52 Cloudy 60 15.6 55 12.8 84 84 NW 6 9 29.85 1011 10 16.09344 0 0
9:52 am 09:52 Cloudy 62 16.7 56 13.3 80 80 NNW 8 13 29.83 1010 10 16.09344 0 0
10:52 am 10:52 Cloudy 64 17.8 57 13.9 78 78 NNW 6 9 29.83 1010 10 16.09344 0 0
11:40 am 11:40 Cloudy 67 19.4 58 14.4 73 73 N 3 6 29.83 1010 10 16.09344 0 0
11:52 am 11:52 Cloudy 67 19.4 59 15 76 76 N 6 9 29.83 1010 10 16.09344 0 0
12:39 pm 12:39 Partly Cloudy 71 21.7 60 15.6 68 68 NW 8 13 29.83 1010 10 16.09344 0 0
12:52 pm 12:52 Partly Cloudy 69 20.6 60 15.6 73 73 ESE 5 7 29.8 1009 10 16.09344 0 0
1:52 pm 13:52 Mostly Cloudy 73 22.8 61 16.1 66 66 E 3 6 29.8 1009 10 16.09344 0 0
2:52 pm 14:52 Mostly Cloudy 76 24.4 59 15 56 56 N 9 15 29.77 1008 10 16.09344 0 0
3:52 pm 15:52 Mostly Cloudy 78 25.6 58 14.4 50 50 WNW 10 17 29.74 1007 10 16.09344 0 0
4:52 pm 16:52 Mostly Cloudy 77 25 56 13.3 48 48 NNW 14 22 29.74 1007 10 16.09344 0 0
5:52 pm 17:52 Partly Cloudy 80 26.7 55 12.8 42 42 NW 15 24 29.74 1007 10 16.09344 0 0
6:52 pm 18:52 Partly Cloudy 78 25.6 53 11.7 42 42 NNW 14 22 29.74 1007 10 16.09344 0 0
7:52 pm 19:52 Partly Cloudy 76 24.4 53 11.7 45 45 N 10 17 29.77 1008 10 16.09344 0 0
8:52 pm 20:52 Partly Cloudy 75 23.9 52 11.1 45 45 NW 9 15 29.77 1008 10 16.09344 0 0
9:52 pm 21:52 Partly Cloudy 73 22.8 52 11.1 48 48 W 7 11 29.8 1009 10 16.09344 0 0
10:52 pm 22:52 Partly Cloudy 71 21.7 52 11.1 51 51 W 8 13 29.83 1010 10 16.09344 0 0
11:52 pm 23:52 Mostly Clear 70 21.1 52 11.1 53 53 W 7 11 29.8 1009 10 16.09344 0 0

Powered by AerisWeather